Vorticity
nan nan nan nan nan nan nan nan nan nan nan nan nan nan nan nan nan nan nan nan nan nan nan nan nan nan nan nan nan nan nan nan nan nan nan nan nan nan nan nan nan nan nan
nan 9 9 9 9 9 9 8 9 9 9 9 9 10 10 10 10 10 11 10 9 10 10 9 10 12 12 13 12 12 12 11 11 11 14 15 13 9 9 9 7 10 nan
nan 9 8 8 9 9 10 9 9 10 9 8 9 9 9 10 11 10 10 11 10 9 9 9 9 11 12 13 12 13 12 12 13 14 11 10 14 18 16 14 11 10 nan
nan 9 9 9 9 9 9 9 9 9 9 10 9 10 8 9 10 11 11 10 9 9 10 9 9 11 12 14 12 11 13 13 13 14 13 10 11 12 15 15 16 17 nan
nan 8 9 9 9 9 9 10 10 9 9 9 9 9 9 10 9 12 11 9 9 9 10 10 5 4 13 19 15 10 13 15 13 12 12 10 9 7 11 15 10 13 nan
nan 9 9 9 9 9 10 10 9 9 9 10 10 7 11 4 7 16 14 11 8 9 9 9 6 4 9 10 13 14 14 13 14 13 11 9 9 10 8 9 11 11 nan
nan 9 9 8 8 9 10 10 9 9 9 9 9 9 7 2 8 16 16 15 8 8 8 11 11 5 9 12 8 9 7 9 15 13 10 10 9 10 12 10 12 12 nan
nan 8 9 10 10 10 9 10 10 9 8 8 8 10 8 2 4 17 21 14 8 8 7 9 10 7 9 15 13 10 9 7 9 12 10 12 11 10 12 13 13 15 nan
nan 8 10 10 10 10 9 9 10 10 9 8 8 8 10 2 2 17 24 12 10 8 8 5 9 4 3 19 18 11 11 9 5 7 11 9 10 13 18 17 12 15 nan
nan 11 9 8 9 9 10 9 10 9 9 9 8 6 8 4 1 12 22 16 9 10 7 -0 4 9 6 17 19 11 11 9 10 11 10 8 10 7 11 17 12 12 nan
nan 7 9 10 9 9 9 9 10 10 9 9 9 7 5 7 3 3 18 21 12 11 9 8 -3 2 9 9 17 16 12 12 13 14 11 9 8 10 9 8 10 12 nan
nan 8 9 9 9 9 9 10 9 9 9 9 9 9 7 1 3 7 9 13 18 15 10 10 3 3 9 12 9 7 16 21 14 10 10 9 10 9 8 9 12 14 nan
nan 8 9 9 9 9 8 10 11 10 9 9 9 9 9 9 -0 1 8 10 16 15 7 4 7 8 13 7 3 12 18 15 11 10 10 9 9 9 9 11 11 14 nan
nan 8 6 7 8 12 12 8 9 11 11 10 9 10 9 9 9 8 8 6 8 10 11 9 7 9 9 10 8 10 11 10 11 10 10 11 10 10 11 11 10 12 nan
nan 8 8 9 9 6 5 12 14 10 13 13 13 12 8 10 8 10 13 12 10 10 13 11 9 9 9 10 9 9 9 9 10 11 10 10 11 11 11 11 10 12 nan
nan 8 9 10 9 12 11 7 7 8 7 7 10 13 10 4 6 10 13 8 10 18 16 10 10 10 10 9 10 10 9 10 11 11 11 10 10 10 10 11 10 10 nan
nan 11 10 9 10 10 8 11 12 7 3 3 5 5 7 6 5 8 11 15 11 14 13 10 10 9 9 9 10 10 9 8 10 12 10 10 12 9 10 11 10 10 nan
nan 11 13 11 10 9 9 10 8 9 12 10 3 2 7 9 8 7 13 19 11 11 10 10 9 10 10 9 10 10 10 10 9 10 10 10 10 11 11 10 10 9 nan
nan 8 9 9 10 11 10 9 9 10 11 10 7 6 7 12 12 6 13 15 10 9 10 9 10 10 10 10 10 9 10 10 10 11 9 10 10 11 11 10 8 8 nan
nan 10 12 11 9 9 10 10 10 11 11 10 10 9 9 11 11 9 9 10 10 10 9 10 10 10 10 11 11 10 10 9 10 10 9 10 10 10 10 10 11 11 nan
nan 8 11 11 10 11 10 10 10 10 11 11 11 9 8 13 10 10 10 10 10 10 10 11 10 11 11 10 10 10 10 10 10 10 10 9 10 10 10 11 11 11 nan
nan 10 10 11 10 9 11 11 11 10 10 11 11 9 10 13 10 10 10 10 10 10 10 11 11 10 10 10 11 11 11 11 10 9 10 10 10 10 9 11 11 11 nan
nan 11 10 10 12 11 9 9 10 11 11 10 11 9 11 11 10 10 10 10 10 10 10 11 11 10 9 11 11 11 11 11 10 10 10 10 11 9 9 10 11 10 nan
nan 11 10 9 10 12 10 11 12 9 8 11 11 10 11 10 10 10 11 10 10 11 10 10 10 8 10 10 11 11 9 10 11 7 11 13 9 8 10 10 9 10 nan
nan 11 11 10 10 11 10 8 9 9 11 11 10 10 10 11 10 10 11 11 10 10 10 11 9 7 8 10 12 7 9 11 12 13 14 10 10 12 13 10 9 11 nan
nan nan nan nan nan nan nan nan nan nan nan nan nan nan nan nan nan nan nan nan nan nan nan nan nan nan nan nan nan nan nan nan nan nan nan nan nan nan nan nan nan nan nan
CAPE
3 2 4 5 7 7 7 9 12 9 6 7 8 11 13 11 12 9 8 7 7 9 10 12 7 9 12 11 10 8 8 8 20 33 100 156 57 298 518 364 211 350 420
4 3 6 5 4 6 7 7 9 12 4 3 6 11 10 9 8 12 9 8 7 7 9 10 10 8 10 11 8 10 12 10 14 6 7 56 19 290 425 519 453 386 776
5 5 6 4 3 2 2 4 4 3 3 3 4 5 5 7 6 8 10 10 8 9 8 11 14 12 12 11 11 11 12 7 11 13 9 4 17 203 301 371 393 448 447
2 2 2 0 0 0 1 2 3 2 2 2 6 4 3 3 8 5 6 6 9 9 14 12 16 15 14 15 12 12 10 9 7 8 10 8 8 0 3 94 166 392 502
3 3 1 0 0 1 2 3 4 5 5 3 5 4 1 0 4 4 4 7 8 7 7 6 9 16 9 13 15 13 11 11 11 10 10 9 8 7 9 8 4 2 29
0 0 0 1 0 2 3 3 3 4 5 5 6 4 1 0 3 4 5 8 10 7 5 5 3 10 12 8 7 8 14 13 12 14 17 13 8 10 11 12 9 3 4
0 0 0 2 2 4 4 5 8 8 9 11 10 8 4 1 1 1 3 12 11 10 8 7 3 5 11 13 6 5 8 6 6 11 10 12 11 14 16 10 7 8 7
0 0 0 2 3 5 6 9 13 16 18 16 11 10 10 9 1 1 0 12 23 14 16 12 11 15 16 11 3 3 15 15 16 18 15 16 11 12 13 11 12 8 4
0 1 1 3 6 8 7 10 16 16 19 18 17 10 9 15 3 1 2 24 31 23 25 11 13 19 4 5 6 12 9 13 7 5 5 3 2 5 12 14 8 9 4
2 1 1 4 5 7 10 11 17 22 18 24 18 17 9 12 4 3 8 8 11 12 11 18 2 4 2 3 14 14 9 16 19 11 12 8 8 9 6 12 22 13 8
3 2 2 2 5 9 11 17 17 18 19 15 18 22 17 18 16 3 3 10 22 13 11 21 23 3 3 4 4 14 13 15 16 17 21 22 18 19 15 19 15 26 18
5 4 5 4 4 9 13 17 16 18 12 13 14 17 33 30 4 5 3 3 6 16 17 17 19 3 4 4 9 3 3 10 26 22 23 21 21 20 21 19 18 16 9
2 3 3 3 3 3 6 8 11 21 12 9 11 14 12 29 30 5 5 4 3 20 32 16 3 3 2 12 3 4 7 22 25 28 29 28 32 23 27 16 12 8 9
0 0 0 0 0 0 0 2 2 5 9 9 13 11 12 9 13 20 25 27 10 8 17 26 16 18 8 13 23 25 33 37 29 31 35 36 32 23 25 30 21 21 14
0 0 0 0 0 0 0 1 3 3 3 5 10 19 10 11 18 15 16 21 28 13 25 23 33 40 36 38 38 23 39 31 25 31 33 27 25 23 27 31 27 20 15
0 0 0 0 0 0 0 1 0 0 0 0 0 4 11 3 2 3 3 1 0 3 10 29 41 41 39 37 38 38 39 27 34 35 40 32 29 22 29 32 35 26 19
0 0 0 0 0 0 0 1 6 1 0 0 0 0 1 3 2 3 3 2 0 1 13 20 29 29 29 17 25 26 35 28 27 36 39 32 29 24 34 31 26 31 18
0 0 3 6 8 10 11 10 12 12 15 18 1 0 1 2 2 4 3 1 8 5 8 8 12 17 9 7 9 13 18 35 38 32 45 40 34 32 41 32 27 28 25
6 9 11 14 10 5 7 7 6 8 11 12 9 1 2 0 0 1 4 13 11 9 6 5 8 9 10 8 35 42 41 51 49 44 46 32 34 33 45 31 33 13 15
4 1 2 8 6 5 2 1 2 3 3 5 8 3 1 6 13 12 12 13 11 8 8 6 7 11 11 10 37 46 49 49 42 41 43 43 46 41 42 27 39 39 30
4 1 0 1 1 1 1 0 0 0 1 1 4 0 0 1 7 7 7 10 9 7 10 8 9 12 9 11 8 28 33 28 38 38 44 39 32 42 46 40 42 36 34
2 1 0 1 0 0 0 0 0 0 0 0 2 1 0 9 7 5 6 10 10 7 8 7 9 9 7 7 9 14 29 24 34 31 36 33 33 41 43 45 41 34 43
0 0 0 0 0 0 1 0 0 1 1 3 4 5 5 9 9 7 8 10 7 8 8 7 8 5 5 6 7 9 14 9 19 27 32 37 37 47 49 47 41 35 34
2 3 0 1 1 0 3 2 2 0 0 4 8 8 8 8 9 6 7 7 5 6 6 4 4 5 3 4 7 7 4 9 14 19 13 21 38 37 50 41 40 30 30
5 5 4 3 2 3 4 2 2 3 4 5 6 7 5 7 6 6 7 4 2 3 2 2 3 2 1 0 5 0 1 3 5 4 16 10 15 16 33 43 29 38 23
3 1 3 2 4 3 3 2 3 2 2 4 5 6 6 6 5 4 4 1 0 0 1 2 2 1 1 3 0 2 2 1 3 3 15 15 34 42 50 22 11 40 26